When you browse on this site, cookies collect data to enhance your experience and personalize the content and advertising you see.
Visit our Privacy Policy to learn more. By continuing to use the site, you agree to this use of cookies and data.
  • In Portugal
  • List of Countries
  • For 7 days
  • Water Temperature
  • Satellite Maps
  • Weather Map
  • Weather Widgets
  • user-avatar
    Login

    Hourly Weather Recife

    Today, 17 December, Monday

    Time Temperature Precipitation Wind Pressure Humidity
    00:00 +28°C° 0.4 mm 4 mps 760 mmHg 82%
    01:00 +27°C° 0.4 mm 3 mps 760 mmHg 83%
    02:00 +27°C° 0.4 mm 3 mps 759 mmHg 84%
    03:00 +27°C° 0.4 mm 3 mps 759 mmHg 85%
    04:00 +27°C° 0.4 mm 3 mps 759 mmHg 86%
    05:00 +27°C° 0.5 mm 4 mps 759 mmHg 85%
    06:00 +27°C° 0.5 mm 4 mps 759 mmHg 84%
    07:00 +27°C° 0.5 mm 4 mps 759 mmHg 83%
    08:00 +28°C° 0.8 mm 4 mps 760 mmHg 79%
    09:00 +29°C° 0.8 mm 5 mps 760 mmHg 74%
    10:00 +30°C° 0.8 mm 5 mps 760 mmHg 70%
    11:00 +32°C° 0.7 mm 5 mps 760 mmHg 68%
    12:00 +32°C° 0.7 mm 5 mps 760 mmHg 66%
    13:00 +33°C° 0.7 mm 5 mps 759 mmHg 64%
    14:00 +33°C° 0.2 mm 5 mps 759 mmHg 64%
    15:00 +33°C° 0.2 mm 6 mps 759 mmHg 64%
    16:00 +32°C° 0.2 mm 6 mps 759 mmHg 65%
    17:00 +32°C° 0.1 mm 6 mps 759 mmHg 69%
    18:00 +30°C° 0.1 mm 5 mps 759 mmHg 73%
    19:00 +29°C° 0.1 mm 5 mps 759 mmHg 77%
    20:00 +29°C° 0.1 mm 5 mps 760 mmHg 78%
    21:00 +28°C° 0.1 mm 5 mps 760 mmHg 79%
    22:00 +28°C° 0.1 mm 5 mps 760 mmHg 79%
    23:00 +28°C° 0 mm 5 mps 760 mmHg 79%

    Tomorrow, 18 December, Tuesday

    Time Temperature Precipitation Wind Pressure Humidity
    00:00 +28°C° 0 mm 4 mps 760 mmHg 79%
    01:00 +28°C° 0 mm 4 mps 760 mmHg 80%
    02:00 +28°C° 0.1 mm 4 mps 760 mmHg 79%
    03:00 +28°C° 0.1 mm 4 mps 759 mmHg 79%
    04:00 +27°C° 0.1 mm 4 mps 759 mmHg 78%
    05:00 +28°C° 0.1 mm 4 mps 759 mmHg 77%
    06:00 +28°C° 0.1 mm 4 mps 759 mmHg 75%
    07:00 +28°C° 0.1 mm 4 mps 760 mmHg 74%
    08:00 +29°C° 0.1 mm 5 mps 760 mmHg 69%
    09:00 +32°C° 0.1 mm 5 mps 760 mmHg 63%
    10:00 +33°C° 0.1 mm 5 mps 760 mmHg 58%
    11:00 +33°C° 0 mm 5 mps 760 mmHg 56%
    12:00 +34°C° 0 mm 5 mps 760 mmHg 54%
    13:00 +34°C° 0 mm 5 mps 760 mmHg 52%
    14:00 +34°C° 0 mm 5 mps 759 mmHg 53%
    15:00 +34°C° 0 mm 5 mps 759 mmHg 54%
    16:00 +33°C° 0 mm 5 mps 758 mmHg 56%
    17:00 +32°C° 0 mm 5 mps 759 mmHg 60%
    18:00 +30°C° 0 mm 5 mps 759 mmHg 65%
    19:00 +29°C° 0 mm 5 mps 759 mmHg 70%
    20:00 +28°C° 0 mm 5 mps 759 mmHg 72%
    21:00 +28°C° 0 mm 4 mps 760 mmHg 75%
    22:00 +28°C° 0 mm 4 mps 760 mmHg 77%
    23:00 +28°C° 0 mm 4 mps 760 mmHg 78%

    Day after tomorrow, 19 December, Wednesday

    Time Temperature Precipitation Wind Pressure Humidity
    00:00 +27°C° 0 mm 4 mps 760 mmHg 80%
    01:00 +27°C° 0 mm 4 mps 759 mmHg 81%
    02:00 +27°C° 0 mm 3 mps 759 mmHg 82%
    03:00 +27°C° 0 mm 3 mps 759 mmHg 82%
    04:00 +26°C° 0 mm 3 mps 758 mmHg 83%
    05:00 +27°C° 0 mm 3 mps 759 mmHg 81%
    06:00 +27°C° 0 mm 3 mps 759 mmHg 80%
    07:00 +27°C° 0 mm 3 mps 760 mmHg 78%
    08:00 +28°C° 0.1 mm 4 mps 760 mmHg 72%
    09:00 +30°C° 0.1 mm 4 mps 760 mmHg 65%
    10:00 +32°C° 0.1 mm 4 mps 760 mmHg 59%
    11:00 +33°C° 0.1 mm 4 mps 760 mmHg 58%
    12:00 +33°C° 0.1 mm 5 mps 759 mmHg 56%
    13:00 +34°C° 0.1 mm 5 mps 759 mmHg 55%
    14:00 +33°C° 0.1 mm 5 mps 759 mmHg 57%
    15:00 +33°C° 0.1 mm 5 mps 758 mmHg 59%
    16:00 +32°C° 0.1 mm 5 mps 758 mmHg 61%
    17:00 +30°C° 0.1 mm 5 mps 758 mmHg 66%
    18:00 +29°C° 0.1 mm 5 mps 758 mmHg 71%
    19:00 +28°C° 0.1 mm 4 mps 758 mmHg 76%
    20:00 +28°C° 0.1 mm 4 mps 759 mmHg 77%
    21:00 +28°C° 0.1 mm 4 mps 759 mmHg 78%
    22:00 +28°C° 0.1 mm 4 mps 759 mmHg 79%
    23:00 +27°C° 0.1 mm 4 mps 759 mmHg 80%

    20 December, Thursday

    Time Temperature Precipitation Wind Pressure Humidity
    00:00 +27°C° 0.1 mm 3 mps 758 mmHg 80%
    01:00 +27°C° 0.1 mm 3 mps 758 mmHg 81%
    02:00 +27°C° 0.1 mm 3 mps 758 mmHg 82%
    03:00 +27°C° 0.1 mm 3 mps 757 mmHg 82%
    04:00 +27°C° 0.1 mm 4 mps 757 mmHg 83%
    05:00 +27°C° 0.1 mm 4 mps 757 mmHg 81%
    06:00 +27°C° 0.1 mm 4 mps 758 mmHg 80%
    07:00 +28°C° 0.1 mm 4 mps 758 mmHg 78%
    08:00 +29°C° 0.1 mm 5 mps 759 mmHg 73%
    09:00 +30°C° 0.1 mm 5 mps 759 mmHg 68%
    10:00 +32°C° 0.1 mm 5 mps 759 mmHg 63%
    11:00 +32°C° 0.1 mm 5 mps 759 mmHg 61%
    12:00 +33°C° 0.1 mm 5 mps 759 mmHg 59%
    13:00 +34°C° 0.1 mm 5 mps 758 mmHg 56%
    14:00 +33°C° 0 mm 5 mps 758 mmHg 57%
    15:00 +33°C° 0 mm 5 mps 757 mmHg 58%
    16:00 +33°C° 0 mm 5 mps 757 mmHg 59%
    17:00 +32°C° 0 mm 5 mps 757 mmHg 63%
    18:00 +30°C° 0 mm 5 mps 757 mmHg 67%
    19:00 +29°C° 0 mm 4 mps 758 mmHg 71%
    20:00 +29°C° 0 mm 4 mps 758 mmHg 73%
    21:00 +28°C° 0 mm 4 mps 759 mmHg 75%
    22:00 +28°C° 0 mm 4 mps 759 mmHg 77%
    23:00 +28°C° 0.1 mm 4 mps 758 mmHg 78%

    21 December, Friday

    Time Temperature Precipitation Wind Pressure Humidity
    00:00 +28°C° 0.1 mm 4 mps 758 mmHg 78%
    01:00 +28°C° 0.1 mm 4 mps 758 mmHg 79%
    02:00 +28°C° 0.1 mm 4 mps 757 mmHg 80%
    03:00 +27°C° 0.1 mm 4 mps 757 mmHg 81%
    04:00 +27°C° 0.1 mm 4 mps 757 mmHg 82%
    05:00 +27°C° 0.1 mm 4 mps 757 mmHg 81%
    06:00 +28°C° 0.1 mm 4 mps 758 mmHg 80%
    07:00 +28°C° 0.1 mm 4 mps 758 mmHg 79%
    08:00 +29°C° 0.1 mm 5 mps 758 mmHg 73%
    09:00 +30°C° 0.1 mm 5 mps 758 mmHg 66%
    10:00 +33°C° 0.1 mm 5 mps 759 mmHg 60%
    11:00 +33°C° 0 mm 5 mps 758 mmHg 58%
    12:00 +33°C° 0 mm 5 mps 758 mmHg 57%
    13:00 +34°C° 0 mm 5 mps 758 mmHg 55%
    14:00 +33°C° 0 mm 5 mps 757 mmHg 56%
    15:00 +33°C° 0 mm 5 mps 757 mmHg 57%
    16:00 +33°C° 0 mm 5 mps 756 mmHg 59%
    17:00 +32°C° 0 mm 5 mps 757 mmHg 64%
    18:00 +30°C° 0 mm 5 mps 757 mmHg 69%
    19:00 +29°C° 0 mm 4 mps 757 mmHg 75%
    20:00 +28°C° 0.1 mm 4 mps 758 mmHg 76%
    21:00 +28°C° 0.1 mm 4 mps 758 mmHg 77%
    22:00 +28°C° 0.1 mm 4 mps 759 mmHg 79%
    23:00 +28°C° 0.1 mm 4 mps 758 mmHg 80%

    22 December, Saturday

    Time Temperature Precipitation Wind Pressure Humidity
    00:00 +27°C° 0.1 mm 3 mps 758 mmHg 81%
    01:00 +27°C° 0.1 mm 3 mps 757 mmHg 81%
    02:00 +27°C° 0 mm 3 mps 757 mmHg 82%
    03:00 +27°C° 0 mm 3 mps 757 mmHg 82%
    04:00 +27°C° 0 mm 3 mps 757 mmHg 83%
    05:00 +27°C° 0 mm 3 mps 757 mmHg 81%
    06:00 +27°C° 0 mm 3 mps 757 mmHg 80%
    07:00 +28°C° 0 mm 3 mps 758 mmHg 78%
    08:00 +29°C° 0 mm 4 mps 758 mmHg 71%
    09:00 +30°C° 0 mm 4 mps 758 mmHg 63%
    10:00 +33°C° 0 mm 4 mps 758 mmHg 56%
    11:00 +33°C° 0 mm 4 mps 758 mmHg 54%
    12:00 +34°C° 0 mm 4 mps 758 mmHg 52%
    13:00 +35°C° 0 mm 5 mps 758 mmHg 50%
    14:00 +34°C° 0.1 mm 5 mps 757 mmHg 53%
    15:00 +34°C° 0.1 mm 5 mps 757 mmHg 55%
    16:00 +33°C° 0.1 mm 5 mps 756 mmHg 58%
    17:00 +32°C° 0.1 mm 5 mps 757 mmHg 63%
    18:00 +30°C° 0.1 mm 5 mps 757 mmHg 68%
    19:00 +29°C° 0.1 mm 5 mps 758 mmHg 74%
    20:00 +28°C° 0 mm 4 mps 758 mmHg 75%
    21:00 +28°C° 0 mm 4 mps 758 mmHg 76%
    22:00 +28°C° 0 mm 3 mps 758 mmHg 78%
    23:00 +28°C° 0 mm 3 mps 758 mmHg 79%
    Show more